星链-1523 (STARLINK-1523 )

导读

STARLINK-1523是美国太空探索技术公司(SpaceX)发射的星链(Starlink)卫星,于北京时间2020年8月7日发射入轨,属于星链低轨互联网星座组网卫星,旨在为全球提供高速宽带互联网服务,补充星链星座的空间部署,服务全球各类网络接入需求。

Basic Information
目录编号:
46028
目录名称:
STARLINK-1523
国际标识:
2020-055B
轨道中心:
EARTH
卫星名称:
星链-1523
卫星全名:
星链-1523 (STARLINK-1523 )
卫星状态:
在轨 (已飞行2229 天)
发射日期:
2020-08-07 UTC
国别 :
美国 (US)
星等 :
--
This satellite is enrolled in the Space Conjunction Data Service (SCDS) and the current flight risk assessment level is: No High Risk
Orbit Information
数据来源 国际轨道数据
星历时间: 2026-09-13T19:02:25+0800
15小时前
查看轨道信息
半长轴: 6831.8km
偏心率: 0.0000819
轨道倾角: 53.159°
近地点辐角 332.186°
升交点赤经 331.996°
平近点角 27.910°
近地点: 453.103km
远地点: 454.223km
周期: 93.662分钟
每日圈数: 15.374468
Detailed Information
固有亮度:
5
最大亮度:
2.5
卫星平台:
Starlink V1.0
覆盖范围:
全球
运营商:
太空探索技术公司
运营商所在国:
美国
制造商(研发单位):
太空探索技术公司
制造商所在国:
美国
使用方式:
暂无
Satellite Introduction
星链(Starlink)计划是由太空探索技术公司(SpaceX)提出的一个巨型低轨卫星互联网星座项目,计划在2019年至2024年间在太空搭建由约1.2万颗卫星组成的“星链”网络,其中1584颗将部署在地球上空550千米处的近地轨道,并从2020年开始工作。该卫星仍在工作。
2D Orbit Map
3D Orbit Map
Orbit Altitude Analysis Chart
Orbit Inclination Analysis Chart
Orbit Comprehensive Analysis Chart
View Comprehensive Chart
Conjunction Data List
Event ID Objects TCA Miss Dist (km) Collision Risk Probability Collision Risk Index (CRI) Action
CDM_260916-052404-602805-366521
2026-09-16T
05:24:58+0000
1.737 km
极远距离
4.218057E-6 低风险 0.48
CDM_260915-045704-602806-494821
2026-09-15T
04:57:36+0000
2.047 km
极远距离
2.652887E-6 低风险 0.43
CDM_260915-130304-602806-046922
2026-09-15T
13:03:52+0000
1.686 km
极远距离
2.596965E-6 低风险 0.43
CDM_260916-043804-602805-366521
2026-09-16T
04:38:08+0000
2.981 km
极远距离
1.347453E-6 低风险 0.38
Miss Distance Evolution Trend with All Objects Subscribe to Flight Safety Assessment
Collision Probability Evolution Trend with All Objects Subscribe to Flight Safety Assessment